Weather History for Chanute, KS

Change the Weather History Date:

Saturday, September 14, 2013

  Actual Average Record
Temperature  
Mean Temperature 67 °F 71 °F  
Max Temperature 83 °F 82 °F 99 °F (1939)
Min Temperature 51 °F 60 °F 41 °F (1993)
Degree Days  
Heating Degree Days 0 1  
Month to date heating degree days 0 5  
Since 1 July heating degree days 0 6  
Cooling Degree Days 2 7  
Month to date cooling degree days 171 124  
Year to date cooling degree days 1438 1428  
Growing Degree Days 17 (Base 50)    
Moisture  
Dew Point 52 °F    
Average Humidity 57    
Maximum Humidity 77    
Minimum Humidity 36    
Precipitation  
Precipitation 0.00 in 0.11 in 4.03 in (1962)
Month to date precipitation T 1.54  
Year to date precipitation 34.78 32.03  
Sea Level Pressure  
Sea Level Pressure 30.02 in    
Wind  
Wind Speed 8 mph (ESE)    
Max Wind Speed 14 mph    
Max Gust Speed 18 mph    
Visibility 10 miles    
Events      
T = Trace of Precipitation, MM = Missing Value Source: NWS Daily Summary

Daily Weather History Graph

Daily Weather History Graph

Search for Another Location

Airport:

Trip Planner

Search our weather history database for the weather conditions in past years. The results will help you decide how hot, cold, wet, or windy it might be!

Date:

Astronomy

Sep. 14, 2013 Rise Set
Actual Time 7:03 AM CDT 7:30 PM CDT
Civil Twilight 6:36 AM CDT 7:57 PM CDT
Nautical Twilight 6:05 AM CDT 8:28 PM CDT
Astronomical Twilight 5:34 AM CDT 8:59 PM CDT
Moon 4:08 PM CDT (9/14) 1:40 AM CDT (9/14)
Length of Visible Light 13h 20m
Length of Day
12h 27m
Waxing Gibbous, 72% of the Moon is Illuminated
Sep 14
Waxing Gibbous
Sep 19
Full
Sep 26
Last Quarter
Oct 4
New
Oct 11
First Quarter

Hourly Weather History & Observations

Time (CDT) Temp. Heat Index Dew Point Humidity Pressure Visibility Wind Dir Wind Speed Gust Speed Precip Events Conditions
12:52 AM 60.1 °F - 48.0 °F 64% 30.05 in 10.0 mi Calm Calm - N/A   Clear
1:52 AM 53.1 °F - 46.9 °F 80% 30.05 in 10.0 mi Calm Calm - N/A   Clear
2:52 AM 57.9 °F - 48.0 °F 70% 30.04 in 10.0 mi ENE 3.5 mph - N/A   Clear
3:52 AM 57.9 °F - 48.9 °F 72% 30.04 in 10.0 mi East 4.6 mph - N/A   Clear
4:52 AM 57.0 °F - 48.9 °F 74% 30.04 in 10.0 mi East 6.9 mph - N/A   Clear
5:52 AM 57.0 °F - 48.9 °F 74% 30.03 in 10.0 mi East 9.2 mph - N/A   Clear
6:52 AM 55.9 °F - 48.9 °F 77% 30.05 in 10.0 mi East 9.2 mph - N/A   Clear
7:52 AM 57.0 °F - 50.0 °F 77% 30.07 in 10.0 mi ESE 8.1 mph - N/A   Clear
8:52 AM 60.1 °F - 52.0 °F 75% 30.08 in 10.0 mi ESE 10.4 mph - N/A   Clear
9:52 AM 66.0 °F - 54.0 °F 65% 30.09 in 10.0 mi ESE 8.1 mph - N/A   Clear
10:52 AM 72.0 °F - 53.1 °F 51% 30.08 in 10.0 mi SE 12.7 mph - N/A   Clear
11:52 AM 73.9 °F - 52.0 °F 46% 30.06 in 10.0 mi SSE 13.8 mph - N/A   Clear
12:52 PM 78.1 °F - 53.1 °F 42% 30.05 in 10.0 mi ESE 10.4 mph 18.4 mph N/A   Clear
1:52 PM 78.1 °F - 53.1 °F 42% 30.03 in 10.0 mi Variable 6.9 mph - N/A   Clear
2:52 PM 81.0 °F 80.4 °F 53.1 °F 38% 30.00 in 10.0 mi Variable 5.8 mph - N/A   Clear
3:52 PM 81.0 °F - 52.0 °F 36% 29.98 in 10.0 mi ESE 8.1 mph - N/A   Clear
4:52 PM 81.0 °F 80.4 °F 53.1 °F 38% 29.96 in 10.0 mi SSE 6.9 mph - N/A   Clear
5:52 PM 80.1 °F 79.9 °F 53.1 °F 39% 29.95 in 10.0 mi SSE 6.9 mph - N/A   Clear
6:52 PM 77.0 °F - 54.0 °F 45% 29.96 in 10.0 mi ESE 5.8 mph - N/A   Clear
7:52 PM 73.0 °F - 54.0 °F 51% 29.95 in 10.0 mi ESE 5.8 mph - N/A   Clear
8:52 PM 72.0 °F - 53.1 °F 51% 29.95 in 10.0 mi SE 6.9 mph - N/A   Clear
9:52 PM 70.0 °F - 53.1 °F 55% 29.95 in 10.0 mi ESE 5.8 mph - N/A   Clear
10:52 PM 68.0 °F - 53.1 °F 59% 29.96 in 10.0 mi SE 6.9 mph - N/A   Clear
11:52 PM 68.0 °F - 53.1 °F 59% 29.95 in 10.0 mi SE 8.1 mph - N/A   Clear